| time (UTC) | temp C | wind direction | speed KPH | gust KPH | rain 1hr cm | rain 24hr cm | rain mn cm | humidity % | barometer mb |
| 20260504081545 | 15 | 360 | 12.9 | 27.4 | 0.00 | 0.00 | 0.00 | 46 | 1018.8 |
| 20260504081034 | 15 | 352 | 9.7 | 27.4 | 0.00 | 0.00 | 0.00 | 48 | 1018.8 |
| 20260504080530 | 15 | 11 | 14.5 | 27.4 | 0.00 | 0.00 | 0.00 | 47 | 1018.9 |
| 20260504050533 | 11 | 63 | 11.3 | 22.5 | 0.00 | 0.00 | 0.00 | 58 | 1018.1 |
| 20260504045531 | 11 | 44 | 8.0 | 20.9 | 0.00 | 0.00 | 0.00 | 58 | 1018.0 |
| 20260504045031 | 11 | 352 | 9.7 | 20.9 | 0.00 | 0.00 | 0.00 | 58 | 1018.1 |
| 20260504044546 | 11 | 23 | 8.0 | 20.9 | 0.00 | 0.00 | 0.00 | 58 | 1018.0 |
| 20260504044031 | 11 | 34 | 6.4 | 19.3 | 0.00 | 0.00 | 0.00 | 59 | 1017.8 |
| 20260504043535 | 11 | 40 | 8.0 | 19.3 | 0.00 | 0.00 | 0.00 | 60 | 1017.9 |
| 20260504043045 | 11 | 24 | 9.7 | 20.9 | 0.00 | 0.00 | 0.00 | 61 | 1017.8 |
| 20260504042532 | 11 | 23 | 9.7 | 20.9 | 0.00 | 0.00 | 0.00 | 59 | 1017.8 |
| 20260504042033 | 11 | 40 | 8.0 | 22.5 | 0.00 | 0.00 | 0.00 | 60 | 1017.7 |
| 20260504041544 | 11 | 53 | 8.0 | 22.5 | 0.00 | 0.00 | 0.00 | 61 | 1017.8 |
| 20260504041032 | 11 | 17 | 9.7 | 29.0 | 0.00 | 0.00 | 0.00 | 61 | 1017.7 |
| 20260504040530 | 10 | 62 | 11.3 | 29.0 | 0.00 | 0.00 | 0.00 | 61 | 1017.7 |
| 20260504040043 | 10 | 13 | 11.3 | 24.1 | 0.00 | 0.00 | 0.00 | 62 | 1017.7 |
| 20260504035532 | 10 | 65 | 11.3 | 24.1 | 0.00 | 0.00 | 0.00 | 61 | 1017.5 |
| 20260504035033 | 10 | 37 | 12.9 | 25.7 | 0.00 | 0.00 | 0.00 | 61 | 1017.5 |
| 20260504034552 | 10 | 344 | 11.3 | 25.7 | 0.00 | 0.00 | 0.00 | 61 | 1017.5 |
| 20260504034035 | 10 | 24 | 11.3 | 22.5 | 0.00 | 0.00 | 0.00 | 62 | 1017.4 |
| 20260504033530 | 10 | 9 | 8.0 | 22.5 | 0.00 | 0.00 | 0.00 | 63 | 1017.5 |
| 20260504033050 | 10 | 38 | 8.0 | 25.7 | 0.00 | 0.00 | 0.00 | 63 | 1017.4 |
| 20260504032530 | 10 | 31 | 8.0 | 25.7 | 0.00 | 0.00 | 0.00 | 63 | 1017.4 |
| 20260504032034 | 10 | 360 | 9.7 | 25.7 | 0.00 | 0.00 | 0.00 | 62 | 1017.4 |
| 20260504031600 | 10 | 11 | 8.0 | 22.5 | 0.00 | 0.00 | 0.00 | 64 | 1017.4 |
| 20260504031030 | 10 | 61 | 9.7 | 22.5 | 0.00 | 0.00 | 0.00 | 64 | 1017.2 |
| 20260504030530 | 10 | 30 | 11.3 | 22.5 | 0.00 | 0.00 | 0.00 | 64 | 1017.0 |
| 20260504030108 | 10 | 56 | 8.0 | 22.5 | 0.00 | 0.00 | 0.00 | 65 | 1017.1 |
| 20260504025531 | 10 | 32 | 12.9 | 22.5 | 0.00 | 0.03 | 0.00 | 66 | 1017.0 |
| 20260504025031 | 10 | 69 | 11.3 | 22.5 | 0.00 | 0.03 | 0.00 | 67 | 1017.0 |
| 20260504024546 | 10 | 57 | 8.0 | 29.0 | 0.00 | 0.03 | 0.00 | 67 | 1017.0 |
| 20260504024031 | 10 | 28 | 9.7 | 29.0 | 0.00 | 0.03 | 0.00 | 68 | 1017.0 |
| 20260504023530 | 10 | 15 | 8.0 | 19.3 | 0.00 | 0.03 | 0.00 | 69 | 1017.0 |
| 20260504023043 | 10 | 9 | 8.0 | 22.5 | 0.00 | 0.03 | 0.00 | 67 | 1016.9 |
| 20260504022532 | 10 | 38 | 11.3 | 24.1 | 0.00 | 0.03 | 0.00 | 67 | 1016.8 |
| 20260504022030 | 10 | 18 | 11.3 | 25.7 | 0.00 | 0.03 | 0.00 | 67 | 1017.0 |
| 20260504021543 | 10 | 27 | 11.3 | 25.7 | 0.00 | 0.03 | 0.00 | 66 | 1017.0 |
| 20260504021033 | 10 | 58 | 12.9 | 25.7 | 0.00 | 0.03 | 0.00 | 66 | 1016.9 |
| 20260504020530 | 10 | 41 | 14.5 | 29.0 | 0.00 | 0.03 | 0.00 | 67 | 1016.9 |
| 20260504020039 | 10 | 44 | 12.9 | 29.0 | 0.00 | 0.03 | 0.00 | 66 | 1016.8 |
| 20260504015530 | 10 | 5 | 12.9 | 29.0 | 0.00 | 0.03 | 0.00 | 66 | 1017.0 |
| 20260504015035 | 10 | 39 | 11.3 | 27.4 | 0.00 | 0.03 | 0.00 | 67 | 1016.9 |
| 20260504014546 | 10 | 40 | 11.3 | 22.5 | 0.00 | 0.03 | 0.00 | 68 | 1017.0 |
| 20260504014032 | 10 | 59 | 12.9 | 22.5 | 0.00 | 0.03 | 0.00 | 68 | 1017.1 |
| 20260504013529 | 10 | 40 | 8.0 | 22.5 | 0.00 | 0.03 | 0.00 | 69 | 1017.2 |
| 20260504013045 | 10 | 40 | 9.7 | 22.5 | 0.00 | 0.03 | 0.00 | 69 | 1017.1 |
| 20260504012533 | 10 | 24 | 11.3 | 22.5 | 0.00 | 0.03 | 0.00 | 69 | 1017.2 |
| 20260504012032 | 10 | 15 | 12.9 | 22.5 | 0.00 | 0.03 | 0.00 | 68 | 1017.2 |
| 20260504011545 | 10 | 5 | 14.5 | 30.6 | 0.00 | 0.03 | 0.00 | 67 | 1017.1 |
| 20260504011034 | 10 | 348 | 16.1 | 30.6 | 0.00 | 0.03 | 0.00 | 66 | 1017.0 |
| 20260504010533 | 10 | 19 | 16.1 | 30.6 | 0.00 | 0.03 | 0.00 | 66 | 1017.0 |
| 20260504010044 | 10 | 39 | 14.5 | 25.7 | 0.00 | 0.03 | 0.00 | 67 | 1017.1 |
| 20260504005532 | 10 | 20 | 14.5 | 24.1 | 0.00 | 0.03 | 0.00 | 66 | 1017.0 |
| 20260504005034 | 10 | 21 | 9.7 | 24.1 | 0.00 | 0.03 | 0.00 | 65 | 1016.9 |
| 20260504004542 | 10 | 5 | 11.3 | 27.4 | 0.00 | 0.03 | 0.00 | 64 | 1017.0 |
| 20260504004033 | 10 | 14 | 11.3 | 27.4 | 0.00 | 0.03 | 0.00 | 64 | 1017.0 |
| 20260504003530 | 10 | 12 | 11.3 | 27.4 | 0.00 | 0.03 | 0.00 | 63 | 1017.0 |
| 20260504003043 | 10 | 55 | 11.3 | 40.2 | 0.00 | 0.03 | 0.00 | 63 | 1017.1 |
| 20260504002532 | 10 | 5 | 14.5 | 40.2 | 0.00 | 0.03 | 0.00 | 61 | 1017.1 |
| 20260504002032 | 10 | 67 | 11.3 | 27.4 | 0.00 | 0.03 | 0.00 | 61 | 1017.1 |
| 20260504001550 | 10 | 43 | 11.3 | 30.6 | 0.00 | 0.03 | 0.00 | 62 | 1017.1 |
| 20260504001031 | 10 | 55 | 11.3 | 30.6 | 0.00 | 0.03 | 0.00 | 62 | 1017.2 |
| 20260504000530 | 10 | 46 | 11.3 | 33.8 | 0.00 | 0.03 | 0.00 | 62 | 1017.1 |
| 20260504000106 | 10 | 22 | 16.1 | 33.8 | 0.00 | 0.03 | 0.00 | 62 | 1017.1 |
| 20260503235532 | 10 | 15 | 17.7 | 32.2 | 0.00 | 0.03 | 0.00 | 63 | 1017.3 |
| 20260503235032 | 10 | 59 | 19.3 | 32.2 | 0.00 | 0.03 | 0.00 | 64 | 1017.3 |
| 20260503234544 | 10 | 326 | 16.1 | 32.2 | 0.00 | 0.03 | 0.00 | 64 | 1017.4 |
| 20260503234031 | 10 | 5 | 16.1 | 32.2 | 0.00 | 0.03 | 0.00 | 64 | 1017.4 |
| 20260503233534 | 10 | 5 | 19.3 | 32.2 | 0.00 | 0.03 | 0.00 | 64 | 1017.5 |
| 20260503233043 | 10 | 32 | 11.3 | 32.2 | 0.00 | 0.03 | 0.00 | 65 | 1017.4 |
| 20260503232533 | 10 | 311 | 14.5 | 32.2 | 0.00 | 0.03 | 0.00 | 64 | 1017.6 |
| 20260503232032 | 10 | 46 | 12.9 | 32.2 | 0.00 | 0.03 | 0.00 | 64 | 1017.6 |
| 20260503231546 | 10 | 5 | 11.3 | 29.0 | 0.00 | 0.03 | 0.00 | 66 | 1017.6 |
| 20260503231031 | 9 | 22 | 16.1 | 29.0 | 0.00 | 0.03 | 0.00 | 64 | 1017.6 |
| 20260503230535 | 9 | 5 | 11.3 | 27.4 | 0.00 | 0.03 | 0.00 | 63 | 1017.7 |
| 20260503230048 | 9 | 332 | 14.5 | 27.4 | 0.00 | 0.03 | 0.00 | 62 | 1017.7 |
| 20260503225530 | 9 | 16 | 12.9 | 27.4 | 0.00 | 0.03 | 0.00 | 62 | 1017.7 |
| 20260503225030 | 9 | 39 | 12.9 | 27.4 | 0.00 | 0.03 | 0.00 | 61 | 1017.7 |
| 20260503224545 | 9 | 350 | 14.5 | 22.5 | 0.00 | 0.03 | 0.00 | 61 | 1017.5 |
| 20260503224034 | 9 | 9 | 12.9 | 25.7 | 0.00 | 0.03 | 0.00 | 62 | 1017.5 |
| 20260503223530 | 9 | 5 | 12.9 | 27.4 | 0.00 | 0.03 | 0.00 | 62 | 1017.4 |
| 20260503223045 | 9 | 17 | 16.1 | 27.4 | 0.00 | 0.03 | 0.00 | 61 | 1017.4 |
| 20260503222530 | 10 | 60 | 12.9 | 27.4 | 0.00 | 0.03 | 0.00 | 62 | 1017.4 |
| 20260503222032 | 10 | 343 | 9.7 | 24.1 | 0.00 | 0.03 | 0.00 | 62 | 1017.4 |
| 20260503221541 | 10 | 66 | 11.3 | 32.2 | 0.00 | 0.03 | 0.00 | 62 | 1017.4 |
| 20260503221032 | 10 | 32 | 11.3 | 32.2 | 0.00 | 0.03 | 0.00 | 61 | 1017.3 |
| 20260503220531 | 10 | 24 | 12.9 | 32.2 | 0.00 | 0.03 | 0.00 | 61 | 1017.3 |
| 20260503220045 | 10 | 11 | 8.0 | 24.1 | 0.00 | 0.03 | 0.00 | 62 | 1017.3 |
| 20260503215532 | 10 | 5 | 9.7 | 27.4 | 0.00 | 0.03 | 0.00 | 62 | 1017.4 |
| 20260503215033 | 10 | 338 | 11.3 | 27.4 | 0.00 | 0.03 | 0.00 | 60 | 1017.4 |
| 20260503214544 | 10 | 32 | 16.1 | 32.2 | 0.00 | 0.03 | 0.00 | 61 | 1017.4 |
| 20260503214032 | 10 | 13 | 16.1 | 32.2 | 0.00 | 0.03 | 0.00 | 62 | 1017.4 |
| 20260503213532 | 10 | 52 | 9.7 | 27.4 | 0.00 | 0.03 | 0.00 | 62 | 1017.3 |
| 20260503213043 | 10 | 331 | 12.9 | 27.4 | 0.00 | 0.03 | 0.00 | 62 | 1017.4 |
| 20260503212532 | 10 | 38 | 8.0 | 29.0 | 0.00 | 0.03 | 0.00 | 62 | 1017.3 |
| 20260503212033 | 10 | 34 | 11.3 | 29.0 | 0.00 | 0.03 | 0.00 | 61 | 1017.3 |
| 20260503211544 | 10 | 18 | 12.9 | 24.1 | 0.00 | 0.03 | 0.00 | 61 | 1017.4 |
| 20260503211030 | 10 | 41 | 9.7 | 24.1 | 0.00 | 0.03 | 0.00 | 61 | 1017.2 |
| 20260503210530 | 10 | 352 | 11.3 | 24.1 | 0.00 | 0.03 | 0.00 | 60 | 1017.1 |
| 20260503210043 | 10 | 23 | 8.0 | 25.7 | 0.00 | 0.03 | 0.00 | 60 | 1017.1 |
| 20260503205534 | 10 | 13 | 9.7 | 25.7 | 0.00 | 0.03 | 0.03 | 59 | 1017.2 |
| 20260503205031 | 10 | 13 | 11.3 | 27.4 | 0.00 | 0.03 | 0.03 | 60 | 1017.1 |
| 20260503204548 | 10 | 25 | 8.0 | 27.4 | 0.00 | 0.03 | 0.03 | 58 | 1017.1 |
| 20260503204031 | 10 | 18 | 12.9 | 27.4 | 0.00 | 0.03 | 0.03 | 58 | 1017.1 |
| 20260503203534 | 10 | 25 | 9.7 | 24.1 | 0.00 | 0.03 | 0.03 | 60 | 1017.1 |
| 20260503203049 | 10 | 22 | 9.7 | 24.1 | 0.00 | 0.03 | 0.03 | 60 | 1017.0 |
| 20260503202530 | 10 | 49 | 11.3 | 24.1 | 0.00 | 0.03 | 0.03 | 59 | 1017.0 |
| 20260503202034 | 10 | 338 | 9.7 | 22.5 | 0.00 | 0.03 | 0.03 | 59 | 1017.0 |
| 20260503201551 | 10 | 5 | 9.7 | 25.7 | 0.00 | 0.03 | 0.03 | 60 | 1017.0 |
| 20260503201029 | 10 | 5 | 12.9 | 27.4 | 0.00 | 0.03 | 0.03 | 60 | 1017.1 |
| 20260503200532 | 10 | 46 | 11.3 | 27.4 | 0.00 | 0.03 | 0.03 | 60 | 1017.0 |
| 20260503200046 | 10 | 33 | 12.9 | 30.6 | 0.00 | 0.03 | 0.03 | 59 | 1016.8 |
| 20260503195532 | 10 | 73 | 11.3 | 30.6 | 0.00 | 0.03 | 0.03 | 61 | 1016.9 |
| 20260503195030 | 10 | 48 | 12.9 | 27.4 | 0.00 | 0.03 | 0.03 | 60 | 1017.0 |
| 20260503194547 | 10 | 44 | 11.3 | 24.1 | 0.00 | 0.03 | 0.03 | 60 | 1017.0 |
| 20260503194032 | 10 | 360 | 6.4 | 27.4 | 0.00 | 0.03 | 0.03 | 61 | 1017.0 |
| 20260503193534 | 10 | 60 | 9.7 | 27.4 | 0.00 | 0.03 | 0.03 | 59 | 1017.0 |
| 20260503193043 | 10 | 26 | 11.3 | 27.4 | 0.00 | 0.03 | 0.03 | 60 | 1016.9 |
| 20260503192530 | 10 | 32 | 9.7 | 27.4 | 0.00 | 0.03 | 0.03 | 61 | 1016.8 |
| 20260503192032 | 10 | 352 | 16.1 | 27.4 | 0.00 | 0.03 | 0.03 | 59 | 1016.8 |
| 20260503191541 | 10 | 67 | 12.9 | 27.4 | 0.00 | 0.03 | 0.03 | 59 | 1016.7 |
| 20260503191030 | 11 | 41 | 11.3 | 32.2 | 0.00 | 0.03 | 0.03 | 61 | 1016.7 |
| 20260503190531 | 11 | 19 | 14.5 | 32.2 | 0.00 | 0.03 | 0.03 | 61 | 1016.6 |
| 20260503190042 | 11 | 59 | 17.7 | 40.2 | 0.00 | 0.03 | 0.03 | 60 | 1016.5 |
| 20260503185530 | 11 | 53 | 17.7 | 40.2 | 0.00 | 0.03 | 0.03 | 60 | 1016.5 |
| 20260503185031 | 11 | 67 | 16.1 | 35.4 | 0.00 | 0.03 | 0.03 | 61 | 1016.3 |
| 20260503184557 | 11 | 26 | 19.3 | 35.4 | 0.00 | 0.03 | 0.03 | 61 | 1016.2 |
| 20260503184034 | 11 | 60 | 19.3 | 35.4 | 0.00 | 0.03 | 0.03 | 61 | 1016.2 |
| 20260503183531 | 11 | 14 | 19.3 | 33.8 | 0.00 | 0.03 | 0.03 | 61 | 1016.1 |
| 20260503183050 | 11 | 32 | 19.3 | 33.8 | 0.00 | 0.03 | 0.03 | 60 | 1016.2 |
| 20260503182533 | 11 | 34 | 16.1 | 32.2 | 0.00 | 0.03 | 0.03 | 61 | 1016.0 |
| 20260503182032 | 11 | 55 | 19.3 | 32.2 | 0.00 | 0.03 | 0.03 | 61 | 1016.0 |
| 20260503181551 | 11 | 13 | 19.3 | 32.2 | 0.00 | 0.03 | 0.03 | 61 | 1016.0 |
| 20260503181034 | 11 | 64 | 16.1 | 29.0 | 0.00 | 0.03 | 0.03 | 62 | 1016.1 |
| 20260503180535 | 11 | 37 | 16.1 | 33.8 | 0.00 | 0.03 | 0.03 | 64 | 1015.9 |
| 20260503180043 | 11 | 17 | 17.7 | 37.0 | 0.00 | 0.03 | 0.03 | 64 | 1015.8 |
| 20260503175532 | 11 | 33 | 16.1 | 37.0 | 0.00 | 0.03 | 0.03 | 64 | 1015.7 |
| 20260503175035 | 11 | 49 | 20.9 | 37.0 | 0.00 | 0.03 | 0.03 | 64 | 1015.6 |
| 20260503174542 | 11 | 44 | 19.3 | 40.2 | 0.00 | 0.03 | 0.03 | 66 | 1015.5 |
| 20260503174032 | 11 | 76 | 20.9 | 40.2 | 0.00 | 0.03 | 0.03 | 64 | 1015.4 |
| 20260503173530 | 11 | 51 | 17.7 | 32.2 | 0.00 | 0.03 | 0.03 | 67 | 1015.4 |
| 20260503173041 | 11 | 36 | 16.1 | 33.8 | 0.00 | 0.03 | 0.03 | 67 | 1015.3 |
| 20260503172532 | 11 | 59 | 17.7 | 33.8 | 0.00 | 0.03 | 0.03 | 66 | 1015.2 |
| 20260503172032 | 11 | 20 | 16.1 | 35.4 | 0.00 | 0.03 | 0.03 | 67 | 1015.3 |
| 20260503171607 | 11 | 49 | 17.7 | 35.4 | 0.00 | 0.03 | 0.03 | 67 | 1015.2 |
| 20260503171032 | 11 | 41 | 12.9 | 32.2 | 0.00 | 0.03 | 0.03 | 67 | 1015.2 |
| 20260503170531 | 11 | 102 | 20.9 | 32.2 | 0.00 | 0.03 | 0.03 | 67 | 1015.1 |
| 20260503150529 | 11 | 36 | 19.3 | 38.6 | 0.00 | 0.03 | 0.03 | 75 | 1014.1 |
| 20260503131034 | 10 | 9 | 17.7 | 38.6 | 0.00 | 0.03 | 0.03 | 75 | 1014.3 |
| 20260503130530 | 10 | 45 | 11.3 | 27.4 | 0.00 | 0.03 | 0.03 | 74 | 1014.3 |